iso_date,Year,Hour,Min,DOY,POS_DOY,Lat,Lon,BP,Ts,Ta,has_bp,has_ts,has_ta,BuoyID,Buoy_Type,Buoy_Owner,Logistics,Hemisphere
2020-09-05T18:00:00Z,2020,18,0,249.75,249.75,63.071,-53.583,-999.0,6.3,-999.0,no,yes,no,300234068343830,SVPGHI,AOML,MARIA_S._MERI,North
2020-09-05T19:00:02Z,2020,19,0,249.7917,249.7917,63.078,-53.629,-999.0,6.3,-999.0,no,yes,no,300234068343830,SVPGHI,AOML,MARIA_S._MERI,North
2020-09-05T19:59:57Z,2020,20,0,249.8333,249.8333,63.082,-53.669,-999.0,6.31,-999.0,no,yes,no,300234068343830,SVPGHI,AOML,MARIA_S._MERI,North
2020-09-05T21:00:00Z,2020,21,0,249.875,249.875,63.085,-53.71,-999.0,6.31,-999.0,no,yes,no,300234068343830,SVPGHI,AOML,MARIA_S._MERI,North
2020-09-05T22:00:02Z,2020,22,0,249.9167,249.9167,63.086,-53.751,-999.0,6.32,-999.0,no,yes,no,300234068343830,SVPGHI,AOML,MARIA_S._MERI,North
2020-09-05T22:59:57Z,2020,23,0,249.9583,249.9583,63.084,-53.794,-999.0,6.33,-999.0,no,yes,no,300234068343830,SVPGHI,AOML,MARIA_S._MERI,North
2020-09-06T00:00:00Z,2020,0,0,250.0,250.0,63.081,-53.834,-999.0,6.37,-999.0,no,yes,no,300234068343830,SVPGHI,AOML,MARIA_S._MERI,North
2020-09-06T01:01:03Z,2020,1,1,250.0424,250.0424,63.081,-53.873,-999.0,6.4,-999.0,no,yes,no,300234068343830,SVPGHI,AOML,MARIA_S._MERI,North
2020-09-06T01:59:57Z,2020,2,0,250.0833,250.0833,63.078,-53.912,-999.0,6.4,-999.0,no,yes,no,300234068343830,SVPGHI,AOML,MARIA_S._MERI,North
2020-09-06T03:00:00Z,2020,3,0,250.125,250.125,63.074,-53.947,-999.0,6.41,-999.0,no,yes,no,300234068343830,SVPGHI,AOML,MARIA_S._MERI,North
2020-09-06T04:00:02Z,2020,4,0,250.1667,250.1667,63.068,-53.989,-999.0,6.39,-999.0,no,yes,no,300234068343830,SVPGHI,AOML,MARIA_S._MERI,North
2020-09-06T04:59:57Z,2020,5,0,250.2083,250.2083,63.067,-54.03,-999.0,6.38,-999.0,no,yes,no,300234068343830,SVPGHI,AOML,MARIA_S._MERI,North
2020-09-06T06:00:00Z,2020,6,0,250.25,250.25,63.066,-54.067,-999.0,6.37,-999.0,no,yes,no,300234068343830,SVPGHI,AOML,MARIA_S._MERI,North
2020-09-06T07:00:02Z,2020,7,0,250.2917,250.2917,63.068,-54.099,-999.0,6.36,-999.0,no,yes,no,300234068343830,SVPGHI,AOML,MARIA_S._MERI,North
2020-09-06T07:59:57Z,2020,8,0,250.3333,250.3333,63.073,-54.134,-999.0,6.36,-999.0,no,yes,no,300234068343830,SVPGHI,AOML,MARIA_S._MERI,North
2020-09-06T09:00:00Z,2020,9,0,250.375,250.375,63.08,-54.171,-999.0,6.36,-999.0,no,yes,no,300234068343830,SVPGHI,AOML,MARIA_S._MERI,North
2020-09-06T10:00:02Z,2020,10,0,250.4167,250.4167,63.087,-54.201,-999.0,6.37,-999.0,no,yes,no,300234068343830,SVPGHI,AOML,MARIA_S._MERI,North
2020-09-06T11:00:57Z,2020,11,1,250.459,250.459,63.091,-54.232,-999.0,6.38,-999.0,no,yes,no,300234068343830,SVPGHI,AOML,MARIA_S._MERI,North
2020-09-06T12:00:00Z,2020,12,0,250.5,250.5,63.093,-54.267,-999.0,6.38,-999.0,no,yes,no,300234068343830,SVPGHI,AOML,MARIA_S._MERI,North
2020-09-06T13:00:02Z,2020,13,0,250.5417,250.5417,63.094,-54.31,-999.0,6.38,-999.0,no,yes,no,300234068343830,SVPGHI,AOML,MARIA_S._MERI,North
2020-09-06T13:59:57Z,2020,14,0,250.5833,250.5833,63.098,-54.356,-999.0,6.39,-999.0,no,yes,no,300234068343830,SVPGHI,AOML,MARIA_S._MERI,North
2020-09-06T15:00:00Z,2020,15,0,250.625,250.625,63.105,-54.395,-999.0,6.4,-999.0,no,yes,no,300234068343830,SVPGHI,AOML,MARIA_S._MERI,North
2020-09-06T16:00:02Z,2020,16,0,250.6667,250.6667,63.114,-54.432,-999.0,6.42,-999.0,no,yes,no,300234068343830,SVPGHI,AOML,MARIA_S._MERI,North
2020-09-06T16:59:57Z,2020,17,0,250.7083,250.7083,63.123,-54.471,-999.0,6.38,-999.0,no,yes,no,300234068343830,SVPGHI,AOML,MARIA_S._MERI,North
2020-09-06T18:00:00Z,2020,18,0,250.75,250.75,63.13,-54.506,-999.0,6.44,-999.0,no,yes,no,300234068343830,SVPGHI,AOML,MARIA_S._MERI,North
2020-09-06T19:01:03Z,2020,19,1,250.7924,250.7924,63.141,-54.548,-999.0,6.44,-999.0,no,yes,no,300234068343830,SVPGHI,AOML,MARIA_S._MERI,North
2020-09-06T19:59:57Z,2020,20,0,250.8333,250.8333,63.15,-54.585,-999.0,6.38,-999.0,no,yes,no,300234068343830,SVPGHI,AOML,MARIA_S._MERI,North
2020-09-06T21:03:01Z,2020,21,3,250.8771,250.8771,63.164,-54.624,-999.0,6.42,-999.0,no,yes,no,300234068343830,SVPGHI,AOML,MARIA_S._MERI,North
2020-09-06T22:00:02Z,2020,22,0,250.9167,250.9167,63.175,-54.661,-999.0,6.36,-999.0,no,yes,no,300234068343830,SVPGHI,AOML,MARIA_S._MERI,North
2020-09-06T22:59:57Z,2020,23,0,250.9583,250.9583,63.188,-54.696,-999.0,6.33,-999.0,no,yes,no,300234068343830,SVPGHI,AOML,MARIA_S._MERI,North
2020-09-07T00:00:00Z,2020,0,0,251.0,251.0,63.203,-54.73,-999.0,6.29,-999.0,no,yes,no,300234068343830,SVPGHI,AOML,MARIA_S._MERI,North
2020-09-07T01:00:02Z,2020,1,0,251.0417,251.0417,63.218,-54.767,-999.0,6.28,-999.0,no,yes,no,300234068343830,SVPGHI,AOML,MARIA_S._MERI,North
2020-09-07T01:59:57Z,2020,2,0,251.0833,251.0833,63.228,-54.798,-999.0,6.3,-999.0,no,yes,no,300234068343830,SVPGHI,AOML,MARIA_S._MERI,North
2020-09-07T03:00:00Z,2020,3,0,251.125,251.125,63.239,-54.823,-999.0,6.3,-999.0,no,yes,no,300234068343830,SVPGHI,AOML,MARIA_S._MERI,North
2020-09-07T04:01:03Z,2020,4,1,251.1674,251.1674,63.246,-54.854,-999.0,6.29,-999.0,no,yes,no,300234068343830,SVPGHI,AOML,MARIA_S._MERI,North
2020-09-07T05:03:59Z,2020,5,4,251.2111,251.2111,63.255,-54.879,-999.0,6.29,-999.0,no,yes,no,300234068343830,SVPGHI,AOML,MARIA_S._MERI,North
2020-09-07T06:03:01Z,2020,6,3,251.2521,251.2521,63.26,-54.912,-999.0,6.29,-999.0,no,yes,no,300234068343830,SVPGHI,AOML,MARIA_S._MERI,North
2020-09-07T07:00:02Z,2020,7,0,251.2917,251.2917,63.267,-54.943,-999.0,6.29,-999.0,no,yes,no,300234068343830,SVPGHI,AOML,MARIA_S._MERI,North
2020-09-07T08:00:57Z,2020,8,1,251.334,251.334,63.277,-54.976,-999.0,6.26,-999.0,no,yes,no,300234068343830,SVPGHI,AOML,MARIA_S._MERI,North
2020-09-07T09:00:00Z,2020,9,0,251.375,251.375,63.287,-55.009,-999.0,6.21,-999.0,no,yes,no,300234068343830,SVPGHI,AOML,MARIA_S._MERI,North
2020-09-07T10:00:02Z,2020,10,0,251.4167,251.4167,63.298,-55.035,-999.0,6.1,-999.0,no,yes,no,300234068343830,SVPGHI,AOML,MARIA_S._MERI,North
2020-09-07T11:00:57Z,2020,11,1,251.459,251.459,63.308,-55.073,-999.0,6.05,-999.0,no,yes,no,300234068343830,SVPGHI,AOML,MARIA_S._MERI,North
2020-09-07T12:04:01Z,2020,12,4,251.5028,251.5028,63.315,-55.104,-999.0,6.03,-999.0,no,yes,no,300234068343830,SVPGHI,AOML,MARIA_S._MERI,North
2020-09-07T13:00:02Z,2020,13,0,251.5417,251.5417,63.326,-55.135,-999.0,5.96,-999.0,no,yes,no,300234068343830,SVPGHI,AOML,MARIA_S._MERI,North
2020-09-07T13:59:57Z,2020,14,0,251.5833,251.5833,63.337,-55.166,-999.0,6.01,-999.0,no,yes,no,300234068343830,SVPGHI,AOML,MARIA_S._MERI,North
2020-09-07T15:00:00Z,2020,15,0,251.625,251.625,63.349,-55.184,-999.0,6.49,-999.0,no,yes,no,300234068343830,SVPGHI,AOML,MARIA_S._MERI,North
2020-09-07T16:01:03Z,2020,16,1,251.6674,251.6674,63.361,-55.205,-999.0,6.51,-999.0,no,yes,no,300234068343830,SVPGHI,AOML,MARIA_S._MERI,North
2020-09-07T17:00:57Z,2020,17,1,251.709,251.709,63.368,-55.223,-999.0,6.47,-999.0,no,yes,no,300234068343830,SVPGHI,AOML,MARIA_S._MERI,North
2020-09-07T18:00:00Z,2020,18,0,251.75,251.75,63.377,-55.25,-999.0,6.48,-999.0,no,yes,no,300234068343830,SVPGHI,AOML,MARIA_S._MERI,North
2020-09-07T19:00:02Z,2020,19,0,251.7917,251.7917,63.389,-55.27,-999.0,6.46,-999.0,no,yes,no,300234068343830,SVPGHI,AOML,MARIA_S._MERI,North
2020-09-07T20:01:58Z,2020,20,2,251.8347,251.8347,63.4,-55.285,-999.0,6.46,-999.0,no,yes,no,300234068343830,SVPGHI,AOML,MARIA_S._MERI,North
2020-09-07T21:00:00Z,2020,21,0,251.875,251.875,63.404,-55.288,-999.0,6.46,-999.0,no,yes,no,300234068343830,SVPGHI,AOML,MARIA_S._MERI,North
2020-09-07T22:00:02Z,2020,22,0,251.9167,251.9167,63.405,-55.306,-999.0,6.43,-999.0,no,yes,no,300234068343830,SVPGHI,AOML,MARIA_S._MERI,North
2020-09-07T22:59:57Z,2020,23,0,251.9583,251.9583,63.41,-55.338,-999.0,6.35,-999.0,no,yes,no,300234068343830,SVPGHI,AOML,MARIA_S._MERI,North
2020-09-08T00:00:00Z,2020,0,0,252.0,252.0,63.416,-55.373,-999.0,6.4,-999.0,no,yes,no,300234068343830,SVPGHI,AOML,MARIA_S._MERI,North
2020-09-08T01:01:03Z,2020,1,1,252.0424,252.0424,63.423,-55.404,-999.0,6.28,-999.0,no,yes,no,300234068343830,SVPGHI,AOML,MARIA_S._MERI,North
2020-09-08T01:59:57Z,2020,2,0,252.0833,252.0833,63.434,-55.44,-999.0,6.23,-999.0,no,yes,no,300234068343830,SVPGHI,AOML,MARIA_S._MERI,North
2020-09-08T03:03:01Z,2020,3,3,252.1271,252.1271,63.449,-55.462,-999.0,6.28,-999.0,no,yes,no,300234068343830,SVPGHI,AOML,MARIA_S._MERI,North
2020-09-08T04:00:02Z,2020,4,0,252.1667,252.1667,63.465,-55.469,-999.0,6.31,-999.0,no,yes,no,300234068343830,SVPGHI,AOML,MARIA_S._MERI,North
2020-09-08T04:59:57Z,2020,5,0,252.2083,252.2083,63.478,-55.466,-999.0,6.29,-999.0,no,yes,no,300234068343830,SVPGHI,AOML,MARIA_S._MERI,North
2020-09-08T06:01:00Z,2020,6,1,252.2507,252.2507,63.487,-55.45,-999.0,6.35,-999.0,no,yes,no,300234068343830,SVPGHI,AOML,MARIA_S._MERI,North
2020-09-08T07:00:02Z,2020,7,0,252.2917,252.2917,63.493,-55.434,-999.0,6.39,-999.0,no,yes,no,300234068343830,SVPGHI,AOML,MARIA_S._MERI,North
2020-09-08T07:59:57Z,2020,8,0,252.3333,252.3333,63.496,-55.427,-999.0,6.48,-999.0,no,yes,no,300234068343830,SVPGHI,AOML,MARIA_S._MERI,North
2020-09-08T09:01:00Z,2020,9,1,252.3757,252.3757,63.499,-55.432,-999.0,6.59,-999.0,no,yes,no,300234068343830,SVPGHI,AOML,MARIA_S._MERI,North
2020-09-08T10:00:02Z,2020,10,0,252.4167,252.4167,63.503,-55.443,-999.0,6.6,-999.0,no,yes,no,300234068343830,SVPGHI,AOML,MARIA_S._MERI,North
2020-09-08T10:59:57Z,2020,11,0,252.4583,252.4583,63.51,-55.46,-999.0,6.58,-999.0,no,yes,no,300234068343830,SVPGHI,AOML,MARIA_S._MERI,North
2020-09-08T12:00:00Z,2020,12,0,252.5,252.5,63.518,-55.481,-999.0,6.54,-999.0,no,yes,no,300234068343830,SVPGHI,AOML,MARIA_S._MERI,North
2020-09-08T13:00:02Z,2020,13,0,252.5417,252.5417,63.532,-55.497,-999.0,6.46,-999.0,no,yes,no,300234068343830,SVPGHI,AOML,MARIA_S._MERI,North
2020-09-08T13:59:57Z,2020,14,0,252.5833,252.5833,63.547,-55.508,-999.0,6.54,-999.0,no,yes,no,300234068343830,SVPGHI,AOML,MARIA_S._MERI,North
2020-09-08T15:03:01Z,2020,15,3,252.6271,252.6271,63.563,-55.512,-999.0,6.7,-999.0,no,yes,no,300234068343830,SVPGHI,AOML,MARIA_S._MERI,North
2020-09-08T16:00:02Z,2020,16,0,252.6667,252.6667,63.579,-55.506,-999.0,6.89,-999.0,no,yes,no,300234068343830,SVPGHI,AOML,MARIA_S._MERI,North
2020-09-08T16:59:57Z,2020,17,0,252.7083,252.7083,63.598,-55.492,-999.0,6.9,-999.0,no,yes,no,300234068343830,SVPGHI,AOML,MARIA_S._MERI,North
2020-09-08T18:00:00Z,2020,18,0,252.75,252.75,63.614,-55.472,-999.0,6.9,-999.0,no,yes,no,300234068343830,SVPGHI,AOML,MARIA_S._MERI,North
2020-09-08T19:00:02Z,2020,19,0,252.7917,252.7917,63.629,-55.448,-999.0,6.73,-999.0,no,yes,no,300234068343830,SVPGHI,AOML,MARIA_S._MERI,North
2020-09-08T19:59:57Z,2020,20,0,252.8333,252.8333,63.642,-55.431,-999.0,6.68,-999.0,no,yes,no,300234068343830,SVPGHI,AOML,MARIA_S._MERI,North
2020-09-08T21:00:00Z,2020,21,0,252.875,252.875,63.654,-55.416,-999.0,6.72,-999.0,no,yes,no,300234068343830,SVPGHI,AOML,MARIA_S._MERI,North
2020-09-08T22:00:02Z,2020,22,0,252.9167,252.9167,63.667,-55.407,-999.0,6.65,-999.0,no,yes,no,300234068343830,SVPGHI,AOML,MARIA_S._MERI,North
2020-09-08T23:00:57Z,2020,23,1,252.959,252.959,63.679,-55.395,-999.0,6.57,-999.0,no,yes,no,300234068343830,SVPGHI,AOML,MARIA_S._MERI,North
2020-09-09T00:00:00Z,2020,0,0,253.0,253.0,63.693,-55.389,-999.0,6.44,-999.0,no,yes,no,300234068343830,SVPGHI,AOML,MARIA_S._MERI,North
2020-09-09T01:00:02Z,2020,1,0,253.0417,253.0417,63.706,-55.372,-999.0,6.4,-999.0,no,yes,no,300234068343830,SVPGHI,AOML,MARIA_S._MERI,North
2020-09-09T01:59:57Z,2020,2,0,253.0833,253.0833,63.719,-55.36,-999.0,6.41,-999.0,no,yes,no,300234068343830,SVPGHI,AOML,MARIA_S._MERI,North
2020-09-09T03:00:00Z,2020,3,0,253.125,253.125,63.728,-55.347,-999.0,6.45,-999.0,no,yes,no,300234068343830,SVPGHI,AOML,MARIA_S._MERI,North
2020-09-09T04:02:03Z,2020,4,2,253.1681,253.1681,63.738,-55.331,-999.0,6.13,-999.0,no,yes,no,300234068343830,SVPGHI,AOML,MARIA_S._MERI,North
2020-09-09T04:59:57Z,2020,5,0,253.2083,253.2083,63.748,-55.311,-999.0,5.99,-999.0,no,yes,no,300234068343830,SVPGHI,AOML,MARIA_S._MERI,North
2020-09-09T06:00:00Z,2020,6,0,253.25,253.25,63.757,-55.291,-999.0,5.99,-999.0,no,yes,no,300234068343830,SVPGHI,AOML,MARIA_S._MERI,North
2020-09-09T07:00:02Z,2020,7,0,253.2917,253.2917,63.766,-55.267,-999.0,6.01,-999.0,no,yes,no,300234068343830,SVPGHI,AOML,MARIA_S._MERI,North
2020-09-09T07:59:57Z,2020,8,0,253.3333,253.3333,63.778,-55.242,-999.0,6.02,-999.0,no,yes,no,300234068343830,SVPGHI,AOML,MARIA_S._MERI,North
2020-09-09T09:00:00Z,2020,9,0,253.375,253.375,63.787,-55.219,-999.0,6.02,-999.0,no,yes,no,300234068343830,SVPGHI,AOML,MARIA_S._MERI,North
2020-09-09T10:00:02Z,2020,10,0,253.4167,253.4167,63.795,-55.192,-999.0,6.03,-999.0,no,yes,no,300234068343830,SVPGHI,AOML,MARIA_S._MERI,North
2020-09-09T10:59:57Z,2020,11,0,253.4583,253.4583,63.799,-55.169,-999.0,6.03,-999.0,no,yes,no,300234068343830,SVPGHI,AOML,MARIA_S._MERI,North
2020-09-09T12:04:01Z,2020,12,4,253.5028,253.5028,63.804,-55.143,-999.0,6.04,-999.0,no,yes,no,300234068343830,SVPGHI,AOML,MARIA_S._MERI,North
2020-09-09T13:01:03Z,2020,13,1,253.5424,253.5424,63.808,-55.127,-999.0,6.04,-999.0,no,yes,no,300234068343830,SVPGHI,AOML,MARIA_S._MERI,North
2020-09-09T13:59:57Z,2020,14,0,253.5833,253.5833,63.814,-55.119,-999.0,6.05,-999.0,no,yes,no,300234068343830,SVPGHI,AOML,MARIA_S._MERI,North
2020-09-09T15:00:00Z,2020,15,0,253.625,253.625,63.821,-55.106,-999.0,6.06,-999.0,no,yes,no,300234068343830,SVPGHI,AOML,MARIA_S._MERI,North
2020-09-09T16:00:02Z,2020,16,0,253.6667,253.6667,63.824,-55.084,-999.0,6.08,-999.0,no,yes,no,300234068343830,SVPGHI,AOML,MARIA_S._MERI,North
2020-09-09T16:59:57Z,2020,17,0,253.7083,253.7083,63.828,-55.075,-999.0,6.1,-999.0,no,yes,no,300234068343830,SVPGHI,AOML,MARIA_S._MERI,North
2020-09-09T18:00:00Z,2020,18,0,253.75,253.75,63.832,-55.062,-999.0,6.14,-999.0,no,yes,no,300234068343830,SVPGHI,AOML,MARIA_S._MERI,North
2020-09-09T19:00:02Z,2020,19,0,253.7917,253.7917,63.838,-55.041,-999.0,6.15,-999.0,no,yes,no,300234068343830,SVPGHI,AOML,MARIA_S._MERI,North
2020-09-09T19:59:57Z,2020,20,0,253.8333,253.8333,63.843,-55.022,-999.0,6.15,-999.0,no,yes,no,300234068343830,SVPGHI,AOML,MARIA_S._MERI,North
2020-09-09T21:00:00Z,2020,21,0,253.875,253.875,63.846,-55.0,-999.0,6.15,-999.0,no,yes,no,300234068343830,SVPGHI,AOML,MARIA_S._MERI,North
2020-09-09T22:00:02Z,2020,22,0,253.9167,253.9167,63.849,-54.978,-999.0,6.16,-999.0,no,yes,no,300234068343830,SVPGHI,AOML,MARIA_S._MERI,North
2020-09-09T23:02:58Z,2020,23,3,253.9604,253.9604,63.847,-54.951,-999.0,6.17,-999.0,no,yes,no,300234068343830,SVPGHI,AOML,MARIA_S._MERI,North
2020-09-10T00:01:00Z,2020,0,1,254.0007,254.0007,63.846,-54.927,-999.0,6.17,-999.0,no,yes,no,300234068343830,SVPGHI,AOML,MARIA_S._MERI,North
2020-09-10T01:00:02Z,2020,1,0,254.0417,254.0417,63.844,-54.906,-999.0,6.17,-999.0,no,yes,no,300234068343830,SVPGHI,AOML,MARIA_S._MERI,North
2020-09-10T01:59:57Z,2020,2,0,254.0833,254.0833,63.84,-54.89,-999.0,6.16,-999.0,no,yes,no,300234068343830,SVPGHI,AOML,MARIA_S._MERI,North
2020-09-10T03:00:00Z,2020,3,0,254.125,254.125,63.839,-54.873,-999.0,6.16,-999.0,no,yes,no,300234068343830,SVPGHI,AOML,MARIA_S._MERI,North
2020-09-10T04:01:03Z,2020,4,1,254.1674,254.1674,63.84,-54.858,-999.0,6.16,-999.0,no,yes,no,300234068343830,SVPGHI,AOML,MARIA_S._MERI,North
2020-09-10T04:59:57Z,2020,5,0,254.2083,254.2083,63.841,-54.835,-999.0,6.16,-999.0,no,yes,no,300234068343830,SVPGHI,AOML,MARIA_S._MERI,North
2020-09-10T06:00:00Z,2020,6,0,254.25,254.25,63.841,-54.814,-999.0,6.16,-999.0,no,yes,no,300234068343830,SVPGHI,AOML,MARIA_S._MERI,North
2020-09-10T07:00:02Z,2020,7,0,254.2917,254.2917,63.839,-54.789,-999.0,6.17,-999.0,no,yes,no,300234068343830,SVPGHI,AOML,MARIA_S._MERI,North
2020-09-10T08:02:58Z,2020,8,3,254.3354,254.3354,63.836,-54.76,-999.0,6.19,-999.0,no,yes,no,300234068343830,SVPGHI,AOML,MARIA_S._MERI,North
2020-09-10T09:00:00Z,2020,9,0,254.375,254.375,63.833,-54.743,-999.0,6.2,-999.0,no,yes,no,300234068343830,SVPGHI,AOML,MARIA_S._MERI,North
2020-09-10T10:00:02Z,2020,10,0,254.4167,254.4167,63.828,-54.717,-999.0,6.21,-999.0,no,yes,no,300234068343830,SVPGHI,AOML,MARIA_S._MERI,North
2020-09-10T11:02:58Z,2020,11,3,254.4604,254.4604,63.818,-54.701,-999.0,6.22,-999.0,no,yes,no,300234068343830,SVPGHI,AOML,MARIA_S._MERI,North
2020-09-10T12:00:00Z,2020,12,0,254.5,254.5,63.812,-54.685,-999.0,6.24,-999.0,no,yes,no,300234068343830,SVPGHI,AOML,MARIA_S._MERI,North
2020-09-10T13:00:02Z,2020,13,0,254.5417,254.5417,63.805,-54.679,-999.0,6.27,-999.0,no,yes,no,300234068343830,SVPGHI,AOML,MARIA_S._MERI,North
2020-09-10T13:59:57Z,2020,14,0,254.5833,254.5833,63.802,-54.681,-999.0,6.27,-999.0,no,yes,no,300234068343830,SVPGHI,AOML,MARIA_S._MERI,North
2020-09-10T15:04:01Z,2020,15,4,254.6278,254.6278,63.803,-54.677,-999.0,6.28,-999.0,no,yes,no,300234068343830,SVPGHI,AOML,MARIA_S._MERI,North
2020-09-10T16:00:02Z,2020,16,0,254.6667,254.6667,63.803,-54.666,-999.0,6.3,-999.0,no,yes,no,300234068343830,SVPGHI,AOML,MARIA_S._MERI,North
2020-09-10T16:59:57Z,2020,17,0,254.7083,254.7083,63.804,-54.642,-999.0,6.48,-999.0,no,yes,no,300234068343830,SVPGHI,AOML,MARIA_S._MERI,North
2020-09-10T18:01:00Z,2020,18,1,254.7507,254.7507,63.801,-54.611,-999.0,6.48,-999.0,no,yes,no,300234068343830,SVPGHI,AOML,MARIA_S._MERI,North
2020-09-10T19:02:03Z,2020,19,2,254.7931,254.7931,63.796,-54.582,-999.0,6.48,-999.0,no,yes,no,300234068343830,SVPGHI,AOML,MARIA_S._MERI,North
2020-09-10T19:59:57Z,2020,20,0,254.8333,254.8333,63.786,-54.552,-999.0,6.47,-999.0,no,yes,no,300234068343830,SVPGHI,AOML,MARIA_S._MERI,North
2020-09-10T21:00:00Z,2020,21,0,254.875,254.875,63.768,-54.527,-999.0,6.44,-999.0,no,yes,no,300234068343830,SVPGHI,AOML,MARIA_S._MERI,North
2020-09-10T22:01:03Z,2020,22,1,254.9174,254.9174,63.753,-54.518,-999.0,6.43,-999.0,no,yes,no,300234068343830,SVPGHI,AOML,MARIA_S._MERI,North
2020-09-10T22:59:57Z,2020,23,0,254.9583,254.9583,63.74,-54.52,-999.0,6.42,-999.0,no,yes,no,300234068343830,SVPGHI,AOML,MARIA_S._MERI,North
2020-09-11T00:04:01Z,2020,0,4,255.0028,255.0028,63.729,-54.518,-999.0,6.41,-999.0,no,yes,no,300234068343830,SVPGHI,AOML,MARIA_S._MERI,North
2020-09-11T01:01:03Z,2020,1,1,255.0424,255.0424,63.725,-54.517,-999.0,6.36,-999.0,no,yes,no,300234068343830,SVPGHI,AOML,MARIA_S._MERI,North
2020-09-11T01:59:57Z,2020,2,0,255.0833,255.0833,63.72,-54.512,-999.0,6.34,-999.0,no,yes,no,300234068343830,SVPGHI,AOML,MARIA_S._MERI,North
2020-09-11T03:00:00Z,2020,3,0,255.125,255.125,63.715,-54.507,-999.0,6.34,-999.0,no,yes,no,300234068343830,SVPGHI,AOML,MARIA_S._MERI,North
2020-09-11T04:01:03Z,2020,4,1,255.1674,255.1674,63.721,-54.477,-999.0,6.34,-999.0,no,yes,no,300234068343830,SVPGHI,AOML,MARIA_S._MERI,North
2020-09-11T04:59:57Z,2020,5,0,255.2083,255.2083,63.713,-54.443,-999.0,6.32,-999.0,no,yes,no,300234068343830,SVPGHI,AOML,MARIA_S._MERI,North
2020-09-11T06:00:00Z,2020,6,0,255.25,255.25,63.699,-54.408,-999.0,6.31,-999.0,no,yes,no,300234068343830,SVPGHI,AOML,MARIA_S._MERI,North
2020-09-11T07:02:03Z,2020,7,2,255.2931,255.2931,63.68,-54.383,-999.0,6.31,-999.0,no,yes,no,300234068343830,SVPGHI,AOML,MARIA_S._MERI,North
2020-09-11T08:00:57Z,2020,8,1,255.334,255.334,63.662,-54.382,-999.0,6.29,-999.0,no,yes,no,300234068343830,SVPGHI,AOML,MARIA_S._MERI,North
2020-09-11T09:00:00Z,2020,9,0,255.375,255.375,63.649,-54.389,-999.0,6.27,-999.0,no,yes,no,300234068343830,SVPGHI,AOML,MARIA_S._MERI,North
2020-09-11T10:00:02Z,2020,10,0,255.4167,255.4167,63.638,-54.394,-999.0,6.18,-999.0,no,yes,no,300234068343830,SVPGHI,AOML,MARIA_S._MERI,North
2020-09-11T10:59:57Z,2020,11,0,255.4583,255.4583,63.631,-54.402,-999.0,6.16,-999.0,no,yes,no,300234068343830,SVPGHI,AOML,MARIA_S._MERI,North
2020-09-11T12:02:00Z,2020,12,2,255.5014,255.5014,63.624,-54.405,-999.0,6.2,-999.0,no,yes,no,300234068343830,SVPGHI,AOML,MARIA_S._MERI,North
2020-09-11T13:00:02Z,2020,13,0,255.5417,255.5417,63.619,-54.413,-999.0,6.26,-999.0,no,yes,no,300234068343830,SVPGHI,AOML,MARIA_S._MERI,North
2020-09-11T13:59:57Z,2020,14,0,255.5833,255.5833,63.616,-54.42,-999.0,6.29,-999.0,no,yes,no,300234068343830,SVPGHI,AOML,MARIA_S._MERI,North
2020-09-11T15:00:00Z,2020,15,0,255.625,255.625,63.614,-54.423,-999.0,6.32,-999.0,no,yes,no,300234068343830,SVPGHI,AOML,MARIA_S._MERI,North
2020-09-11T16:00:02Z,2020,16,0,255.6667,255.6667,63.611,-54.411,-999.0,6.36,-999.0,no,yes,no,300234068343830,SVPGHI,AOML,MARIA_S._MERI,North
2020-09-11T16:59:57Z,2020,17,0,255.7083,255.7083,63.603,-54.396,-999.0,6.37,-999.0,no,yes,no,300234068343830,SVPGHI,AOML,MARIA_S._MERI,North
2020-09-11T18:00:00Z,2020,18,0,255.75,255.75,63.592,-54.383,-999.0,6.38,-999.0,no,yes,no,300234068343830,SVPGHI,AOML,MARIA_S._MERI,North
2020-09-11T19:00:02Z,2020,19,0,255.7917,255.7917,63.575,-54.379,-999.0,6.39,-999.0,no,yes,no,300234068343830,SVPGHI,AOML,MARIA_S._MERI,North
2020-09-11T19:59:57Z,2020,20,0,255.8333,255.8333,63.563,-54.39,-999.0,6.37,-999.0,no,yes,no,300234068343830,SVPGHI,AOML,MARIA_S._MERI,North
2020-09-11T21:00:00Z,2020,21,0,255.875,255.875,63.558,-54.403,-999.0,6.34,-999.0,no,yes,no,300234068343830,SVPGHI,AOML,MARIA_S._MERI,North
2020-09-11T22:00:02Z,2020,22,0,255.9167,255.9167,63.55,-54.413,-999.0,6.32,-999.0,no,yes,no,300234068343830,SVPGHI,AOML,MARIA_S._MERI,North
2020-09-11T22:59:57Z,2020,23,0,255.9583,255.9583,63.543,-54.42,-999.0,6.29,-999.0,no,yes,no,300234068343830,SVPGHI,AOML,MARIA_S._MERI,North
2020-09-12T00:00:00Z,2020,0,0,256.0,256.0,63.535,-54.43,-999.0,6.27,-999.0,no,yes,no,300234068343830,SVPGHI,AOML,MARIA_S._MERI,North
2020-09-12T01:00:02Z,2020,1,0,256.0417,256.0417,63.529,-54.44,-999.0,6.27,-999.0,no,yes,no,300234068343830,SVPGHI,AOML,MARIA_S._MERI,North
2020-09-12T01:59:57Z,2020,2,0,256.0833,256.0833,63.522,-54.452,-999.0,6.28,-999.0,no,yes,no,300234068343830,SVPGHI,AOML,MARIA_S._MERI,North
2020-09-12T03:00:00Z,2020,3,0,256.125,256.125,63.515,-54.468,-999.0,6.29,-999.0,no,yes,no,300234068343830,SVPGHI,AOML,MARIA_S._MERI,North
2020-09-12T04:02:03Z,2020,4,2,256.1681,256.1681,63.511,-54.488,-999.0,6.28,-999.0,no,yes,no,300234068343830,SVPGHI,AOML,MARIA_S._MERI,North
2020-09-12T04:59:57Z,2020,5,0,256.2083,256.2083,63.506,-54.505,-999.0,6.24,-999.0,no,yes,no,300234068343830,SVPGHI,AOML,MARIA_S._MERI,North
2020-09-12T06:00:00Z,2020,6,0,256.25,256.25,63.502,-54.522,-999.0,6.27,-999.0,no,yes,no,300234068343830,SVPGHI,AOML,MARIA_S._MERI,North
2020-09-12T07:00:02Z,2020,7,0,256.2917,256.2917,63.498,-54.537,-999.0,6.25,-999.0,no,yes,no,300234068343830,SVPGHI,AOML,MARIA_S._MERI,North
2020-09-12T07:59:57Z,2020,8,0,256.3333,256.3333,63.494,-54.553,-999.0,6.24,-999.0,no,yes,no,300234068343830,SVPGHI,AOML,MARIA_S._MERI,North
2020-09-12T09:00:00Z,2020,9,0,256.375,256.375,63.49,-54.566,-999.0,6.24,-999.0,no,yes,no,300234068343830,SVPGHI,AOML,MARIA_S._MERI,North
2020-09-12T10:00:02Z,2020,10,0,256.4167,256.4167,63.485,-54.581,-999.0,6.22,-999.0,no,yes,no,300234068343830,SVPGHI,AOML,MARIA_S._MERI,North
2020-09-12T10:59:57Z,2020,11,0,256.4583,256.4583,63.482,-54.599,-999.0,6.21,-999.0,no,yes,no,300234068343830,SVPGHI,AOML,MARIA_S._MERI,North
2020-09-12T12:00:00Z,2020,12,0,256.5,256.5,63.475,-54.618,-999.0,6.22,-999.0,no,yes,no,300234068343830,SVPGHI,AOML,MARIA_S._MERI,North
2020-09-12T13:00:02Z,2020,13,0,256.5417,256.5417,63.476,-54.642,-999.0,6.24,-999.0,no,yes,no,300234068343830,SVPGHI,AOML,MARIA_S._MERI,North
2020-09-12T13:59:57Z,2020,14,0,256.5833,256.5833,63.474,-54.674,-999.0,6.25,-999.0,no,yes,no,300234068343830,SVPGHI,AOML,MARIA_S._MERI,North
2020-09-12T15:00:00Z,2020,15,0,256.625,256.625,63.476,-54.701,-999.0,6.28,-999.0,no,yes,no,300234068343830,SVPGHI,AOML,MARIA_S._MERI,North
2020-09-12T16:00:02Z,2020,16,0,256.6667,256.6667,63.479,-54.727,-999.0,6.31,-999.0,no,yes,no,300234068343830,SVPGHI,AOML,MARIA_S._MERI,North
2020-09-12T16:59:57Z,2020,17,0,256.7083,256.7083,63.483,-54.752,-999.0,6.32,-999.0,no,yes,no,300234068343830,SVPGHI,AOML,MARIA_S._MERI,North
2020-09-12T18:00:00Z,2020,18,0,256.75,256.75,63.487,-54.772,-999.0,6.32,-999.0,no,yes,no,300234068343830,SVPGHI,AOML,MARIA_S._MERI,North
2020-09-12T19:00:02Z,2020,19,0,256.7917,256.7917,63.485,-54.789,-999.0,6.32,-999.0,no,yes,no,300234068343830,SVPGHI,AOML,MARIA_S._MERI,North
2020-09-12T19:59:57Z,2020,20,0,256.8333,256.8333,63.484,-54.811,-999.0,6.32,-999.0,no,yes,no,300234068343830,SVPGHI,AOML,MARIA_S._MERI,North